Saint-Sauveur, Quebec

8:23 PM EDT on August 03, 2015 (GMT -0400)
Morin-Heights | | Change Station
CLOSE
Current Station
Personal Weather Station
Location: Morin-Heights, QUEBEC
Elevation: 1086 ft
Nearby Weather Stations

Elev 1086 ft 45.92 °N, 74.24 °W | Updated 2 minutes ago

Partly Cloudy
Partly Cloudy
65.8 °F
Feels Like 65.8 °F
N
0.0
Wind Variable Wind from North

Today
High -- | Low -- °F
--% Chance of Precip.
Yesterday
High -- | Low -- °F
Precip. -- in
5:41 AM 8:23 PM
Waning Gibbous, 83% visible
Pressure 29.70 in
Visibility 45.0 miles
Clouds Few 4000 ft
Few 8000 ft
Few 22000 ft
Dew Point 63 °F
Humidity 92%
Rainfall 0.11 in
Snow Depth Not available.
UV 0 out of 12
Pollen Not available.
Air Quality Not available.
Flu Activity Not available.
METAR CYMX 040000Z 00000KT 45SM FEW040 FEW080 FEW220 21/17 A2969 RMK CU1AC1CI1 CU TR SLP055 DENSITY ALT 1200FT

More Conditions Fewer Conditions

Pressure 29.70 in
Visibility 45.0 miles
Clouds Few 4000 ft
Few 8000 ft
Few 22000 ft
Dew Point 63 °F
Humidity 92%
Rainfall 0.11 in
Snow Depth Not available.
UV 0 out of 12
Pollen Not available.
Air Quality Not available.
Flu Activity Not available.
METAR CYMX 040000Z 00000KT 45SM FEW040 FEW080 FEW220 21/17 A2969 RMK CU1AC1CI1 CU TR SLP055 DENSITY ALT 1200FT

More Conditions Fewer Conditions

10-Day Weather Forecast

×

Almanac

Astronomy

Aug. 03, 2015 Rise Set
Actual Time
Civil Twilight
Nautical Twilight
Astronomical Twilight
Moon
Length of Visible Light
Length of Day
Tomorrow will be .
, % of the Moon is Illuminated

Today's Extremes

Country Highs Country Lows

Community

WunderPhotos

Upload Photos

1,843,793 photos uploaded!

WunderBlogs® & News

Nearby

Air Quality

  Air Quality AQ Index Pollutant
Not available.

Snow Depth

Station Depth Elevation

Earthquake Activity

City Distance Mag. Time & Date
Minimum magnitude displayed is 2.5.

Coastal Water Temperatures

Place Temperature

Stations

Nearby Weather Stations

Station Location Temp. Windchill Dew Point Humidity Wind Precip. Elev Updated Type